Wind_Speed
27 28 30 32 33 36 37 37 38 43 46 48 52 55 62 68 73 75 78 81 85 88 92 91 93 97 100 103 107 108 109 110 110 110 109 107 106 106 105 105 104 103 103 99
32 31 28 31 32 36 40 41 44 49 52 54 57 58 64 70 73 77 77 83 88 91 91 91 91 93 97 99 101 105 108 111 113 114 113 112 112 111 111 109 107 105 102 97
28 32 35 35 37 40 46 50 50 55 57 59 64 59 65 73 80 83 83 86 90 92 92 93 92 94 97 99 102 106 107 109 112 114 114 115 115 115 115 115 113 110 106 103
35 35 40 44 47 49 52 53 53 52 55 56 63 60 66 75 81 84 86 88 92 97 97 100 97 96 97 99 100 104 104 110 112 113 115 116 116 116 116 117 116 114 110 105
41 43 43 45 50 51 52 55 56 57 58 60 63 75 62 73 77 83 82 82 83 87 92 93 95 98 102 105 105 110 108 109 111 113 114 115 116 117 117 117 116 116 112 108
41 44 48 48 56 60 59 62 62 62 68 66 68 73 65 66 71 73 75 75 70 68 77 84 88 90 97 96 101 107 109 110 117 115 117 116 116 117 117 118 116 116 112 109
50 54 54 56 63 66 69 68 64 59 62 59 62 66 69 71 71 65 67 67 70 71 71 68 72 77 83 91 97 97 104 106 107 114 116 120 119 117 117 116 115 114 112 110
57 65 68 68 66 65 66 65 63 54 55 53 65 66 69 80 73 67 70 63 67 68 74 77 79 81 79 80 101 89 97 98 100 106 110 112 115 116 116 117 116 114 111 108
64 65 68 65 64 64 60 61 61 60 61 62 67 72 72 79 69 67 68 67 65 64 67 73 76 77 81 81 106 73 86 96 99 104 102 101 100 100 101 104 109 112 112 109
59 55 64 64 62 64 62 60 62 68 69 70 69 70 72 73 70 68 68 70 66 70 63 67 71 76 78 81 93 79 68 81 83 91 89 90 90 88 87 89 93 96 99 102
58 58 60 61 65 61 59 65 70 74 78 84 83 67 72 65 64 68 68 66 61 72 68 74 69 73 74 81 83 51 57 68 68 71 69 74 76 75 75 77 78 81 85 90
61 62 62 62 63 61 60 65 70 77 76 80 88 63 68 63 64 62 64 71 68 68 75 74 64 68 75 71 70 61 58 61 58 57 59 63 64 63 62 63 66 70 74 78
65 65 63 60 64 64 66 69 76 81 86 86 88 68 66 67 66 66 64 65 64 63 68 64 61 56 60 64 61 58 49 45 48 47 51 52 53 54 57 57 58 62 63 64
66 68 69 66 65 66 67 71 76 81 87 91 79 76 67 65 62 63 60 57 56 53 53 53 52 54 53 50 42 37 38 37 36 38 41 43 43 42 41 43 47 50 51 53
63 67 70 71 72 72 71 73 73 80 86 88 76 72 71 63 59 57 52 46 43 41 38 37 36 37 36 33 31 32 30 30 32 32 33 34 30 29 31 33 35 38 38 40
70 71 72 72 75 76 70 71 77 83 87 75 68 62 55 48 42 39 36 31 28 26 26 28 29 29 28 25 22 20 22 22 22 26 27 24 21 21 24 24 27 29 29 31
74 79 79 76 80 75 70 73 78 84 77 66 59 51 42 35 29 23 23 20 20 21 22 24 24 24 22 21 19 17 15 16 20 20 17 16 17 16 17 20 22 22 24 26
71 74 73 73 74 67 73 77 80 75 67 51 42 34 26 19 16 15 14 14 14 13 13 13 14 14 16 18 15 14 13 18 18 15 13 13 16 18 18 17 17 17 21 24
74 75 72 76 71 66 73 78 77 68 58 41 31 22 15 11 9 7 8 8 9 9 9 8 7 6 5 5 8 12 13 13 13 12 13 15 17 18 18 20 19 19 23 29
78 72 71 72 69 69 75 74 69 56 42 31 18 13 9 7 8 9 11 11 12 13 16 14 9 6 5 6 6 6 7 10 11 15 18 19 20 19 19 20 22 22 29 34
76 72 75 75 70 74 75 68 58 41 30 18 11 5 5 5 6 13 15 19 20 21 25 25 23 18 17 16 15 15 16 16 18 20 20 21 22 22 23 23 23 26 31 36
69 69 74 72 68 71 74 67 46 32 19 10 6 7 9 9 14 18 21 22 23 26 27 28 28 29 30 28 26 24 24 23 22 23 24 24 24 25 28 26 26 26 31 34
67 70 76 73 67 71 67 55 35 19 11 6 4 7 11 17 22 23 28 30 32 33 34 35 36 34 33 32 32 32 29 28 26 24 25 26 26 25 25 25 28 28 28 34
68 72 72 66 65 68 57 41 23 14 8 4 6 12 17 19 22 27 31 35 38 40 41 41 41 39 39 37 37 36 34 32 30 29 26 25 27 25 25 24 25 28 32 32
70 72 66 61 63 64 48 31 14 10 4 6 11 14 15 21 28 33 38 40 43 46 47 41 37 37 39 40 38 36 34 31 29 28 29 27 25 25 25 23 25 28 29 34
71 68 62 60 65 55 41 25 13 8 6 9 13 18 22 26 30 36 41 42 45 44 38 35 30 27 27 27 29 26 28 28 28 28 28 25 22 23 21 24 30 34 40 54
Wind_Direction
286 287 286 282 279 278 279 279 277 276 273 270 267 264 261 260 259 259 260 260 257 254 255 256 256 255 255 255 255 255 254 254 255 256 256 257 257 256 255 254 255 256 256 256
291 288 286 283 279 277 276 274 273 273 272 270 269 269 268 268 266 263 262 263 262 261 260 258 258 258 258 256 257 258 257 256 255 254 255 256 257 257 258 258 258 257 257 256
287 288 288 283 281 279 281 277 276 275 274 275 269 266 270 268 266 263 263 263 265 265 264 263 261 260 260 260 259 258 258 258 258 257 256 255 255 255 257 257 258 259 259 259
292 290 291 292 290 289 285 285 281 278 278 277 282 273 284 278 271 270 266 264 265 266 266 267 263 261 261 260 259 258 258 260 258 257 257 257 256 255 255 255 255 256 257 257
294 296 296 299 295 290 289 286 285 285 286 281 285 284 283 284 279 273 272 272 270 269 266 262 263 265 262 259 257 258 259 259 258 257 256 256 256 255 255 255 255 254 254 254
302 302 304 306 303 300 298 296 295 292 292 289 288 289 288 282 282 280 277 274 273 269 267 266 266 265 263 261 260 260 257 257 257 256 257 256 255 255 254 255 254 253 253 251
313 309 306 309 306 303 301 300 297 296 295 299 299 299 298 290 279 276 275 275 275 274 272 271 267 266 268 267 263 261 259 257 258 259 256 256 256 255 255 254 254 254 252 251
315 313 313 308 306 302 302 303 303 306 304 304 302 303 301 292 291 286 280 275 268 268 273 274 276 272 271 271 267 255 263 263 261 260 259 259 258 256 255 255 255 254 253 251
315 313 308 307 305 306 307 307 307 308 309 308 307 304 300 291 293 285 286 280 274 267 264 270 270 272 274 270 268 265 261 261 260 261 262 262 261 259 256 254 254 253 252 251
317 318 311 310 305 305 305 304 305 305 307 307 310 306 296 292 292 288 283 284 283 282 273 265 269 272 273 273 275 277 266 263 262 261 261 262 262 260 258 254 252 251 250 249
316 315 314 311 305 305 304 307 308 311 314 316 314 311 296 295 291 289 289 285 285 284 282 280 274 273 271 272 271 268 266 263 261 261 261 260 259 259 258 255 253 251 249 246
317 315 320 316 305 304 305 302 303 306 310 311 311 314 295 293 284 286 289 285 286 288 285 280 276 273 275 274 275 272 266 265 265 262 258 258 258 261 262 259 256 252 248 246
319 316 317 320 310 305 305 305 307 309 311 313 313 308 298 292 295 292 288 289 283 280 279 280 283 273 269 271 272 276 274 266 261 258 257 257 257 257 258 257 253 250 246 244
319 318 320 319 315 308 303 303 305 308 310 312 313 308 301 296 295 293 291 289 287 280 276 278 275 276 278 283 280 272 265 264 264 258 257 258 258 259 256 250 245 244 242 240
318 318 318 319 316 315 310 306 309 308 311 314 311 307 302 302 297 294 295 290 290 287 286 284 282 283 283 279 268 262 261 258 255 253 256 259 257 255 249 244 241 237 234 232
319 320 318 317 317 317 312 312 312 313 312 311 310 305 302 298 297 296 298 300 294 289 285 286 285 285 282 276 269 260 251 246 246 255 254 256 255 253 248 240 235 232 228 224
320 322 321 321 319 316 313 315 315 315 315 315 310 306 305 303 304 303 304 308 304 297 293 288 284 278 275 268 258 246 235 243 243 241 232 234 237 239 239 230 226 221 217 210
317 316 315 317 319 315 314 318 320 320 315 317 309 307 305 303 309 312 311 310 310 308 313 309 311 303 288 275 260 240 222 218 219 220 217 229 234 226 227 226 216 205 201 195
317 319 318 320 319 317 321 326 323 321 317 317 315 310 313 311 317 322 322 323 321 329 333 331 328 322 320 271 226 214 216 222 231 238 220 223 237 229 218 220 222 197 188 183
319 317 318 321 320 323 325 328 323 322 318 318 313 307 316 328 325 339 339 337 333 328 324 318 310 311 287 295 281 252 238 241 233 229 229 225 228 226 220 223 220 211 190 189
320 319 322 324 321 322 329 328 326 322 318 311 302 297 306 320 316 331 327 325 321 315 310 307 302 295 286 277 271 267 256 245 239 239 238 234 230 224 223 222 216 212 204 201
318 319 321 322 322 325 332 327 326 320 309 297 295 315 331 335 330 326 320 316 311 305 300 294 290 288 287 283 276 270 261 257 256 249 246 237 227 223 221 216 214 215 208 209
317 322 324 323 323 328 330 326 321 310 296 292 317 332 331 328 331 327 320 317 313 309 304 300 290 280 272 269 268 266 259 254 252 249 243 241 230 226 222 218 217 211 209 206
319 323 323 323 325 328 330 324 315 281 278 305 325 320 328 325 324 319 318 315 312 306 303 298 291 282 272 266 262 259 255 251 247 245 244 235 229 225 222 217 216 206 201 193
321 323 322 324 328 330 331 320 293 262 268 289 303 313 322 324 328 326 323 319 314 310 306 301 291 284 277 270 263 256 254 247 242 237 237 233 225 222 219 219 210 203 187 170
321 323 326 329 330 330 324 314 266 243 258 287 309 330 333 335 333 330 330 322 315 315 312 309 302 292 282 271 262 255 248 240 233 227 226 221 218 216 212 204 193 179 165 157
Height
10793 10791 10790 10787 10786 10783 10781 10779 10776 10774 10771 10770 10767 10767 10762 10756 10752 10750 10747 10743 10741 10742 10737 10746 10749 10750 10749 10753 10746 10749 10753 10753 10756 10759 10763 10767 10772 10776 10782 10787 10794 10798 10806 10825
10786 10783 10782 10778 10777 10775 10772 10769 10767 10762 10758 10754 10751 10752 10744 10736 10732 10728 10731 10723 10721 10718 10719 10722 10726 10726 10724 10728 10726 10724 10724 10726 10731 10733 10738 10744 10747 10751 10755 10762 10771 10778 10787 10805
10777 10776 10773 10771 10768 10766 10759 10756 10755 10748 10743 10738 10731 10739 10725 10716 10709 10707 10708 10704 10698 10695 10694 10695 10703 10701 10700 10699 10700 10694 10698 10701 10701 10703 10712 10718 10723 10728 10731 10737 10744 10754 10767 10779
10769 10768 10764 10760 10755 10751 10745 10740 10737 10732 10727 10723 10708 10716 10706 10694 10688 10678 10682 10684 10677 10671 10672 10664 10669 10673 10674 10671 10670 10669 10676 10664 10673 10677 10681 10687 10694 10701 10705 10709 10718 10727 10742 10754
10760 10757 10753 10747 10738 10734 10729 10723 10718 10712 10707 10702 10697 10675 10697 10671 10662 10652 10656 10655 10652 10647 10639 10640 10638 10637 10637 10640 10645 10637 10644 10643 10642 10644 10649 10654 10660 10667 10674 10681 10690 10701 10716 10730
10749 10743 10737 10735 10722 10714 10713 10705 10701 10697 10685 10685 10675 10661 10670 10653 10637 10630 10629 10629 10630 10621 10611 10608 10611 10610 10607 10613 10607 10608 10611 10613 10605 10615 10615 10621 10628 10633 10642 10648 10659 10668 10686 10701
10733 10725 10722 10719 10708 10698 10687 10684 10682 10684 10669 10664 10653 10643 10634 10621 10613 10620 10615 10609 10602 10599 10591 10593 10588 10584 10582 10579 10572 10576 10574 10583 10581 10580 10586 10587 10594 10605 10611 10617 10626 10639 10655 10671
10723 10709 10700 10695 10691 10683 10673 10664 10655 10659 10654 10655 10637 10631 10620 10584 10593 10594 10583 10593 10582 10584 10572 10565 10559 10555 10560 10556 10531 10553 10549 10550 10553 10548 10551 10557 10563 10574 10583 10588 10596 10609 10623 10640
10709 10700 10684 10678 10668 10659 10655 10645 10638 10635 10632 10627 10622 10611 10599 10566 10573 10569 10564 10558 10559 10557 10555 10546 10541 10534 10528 10526 10496 10531 10529 10523 10523 10519 10525 10528 10535 10541 10550 10558 10565 10577 10592 10606
10693 10689 10670 10663 10655 10645 10638 10633 10626 10614 10610 10609 10609 10591 10569 10558 10551 10543 10540 10535 10534 10528 10530 10525 10520 10511 10506 10500 10489 10499 10497 10495 10499 10494 10499 10502 10507 10512 10520 10528 10535 10545 10558 10573
10682 10674 10664 10653 10637 10634 10626 10613 10601 10594 10583 10572 10568 10575 10533 10543 10534 10519 10515 10513 10517 10502 10505 10495 10490 10485 10483 10473 10469 10476 10475 10474 10473 10472 10478 10481 10484 10489 10495 10501 10509 10518 10528 10543
10668 10658 10651 10639 10624 10619 10613 10603 10593 10579 10577 10566 10541 10558 10521 10521 10512 10509 10507 10489 10489 10483 10471 10463 10465 10461 10454 10452 10449 10449 10453 10455 10453 10455 10457 10462 10466 10471 10476 10481 10487 10493 10503 10518
10653 10643 10640 10631 10610 10602 10595 10587 10572 10560 10546 10541 10520 10523 10505 10494 10489 10486 10480 10473 10467 10460 10451 10443 10442 10437 10435 10430 10431 10431 10433 10434 10435 10440 10442 10446 10451 10455 10459 10464 10470 10475 10485 10497
10640 10627 10618 10611 10601 10590 10585 10575 10561 10545 10527 10515 10508 10487 10483 10476 10471 10459 10453 10452 10443 10438 10432 10428 10425 10421 10418 10417 10417 10417 10417 10419 10424 10428 10430 10433 10439 10442 10445 10450 10455 10462 10471 10482
10630 10619 10607 10595 10583 10574 10562 10551 10545 10529 10510 10495 10487 10472 10457 10454 10448 10440 10435 10432 10427 10423 10420 10417 10413 10409 10407 10406 10405 10404 10407 10411 10416 10419 10422 10424 10429 10431 10434 10440 10445 10451 10461 10471
10612 10605 10595 10582 10569 10555 10546 10535 10521 10505 10491 10477 10464 10453 10442 10438 10433 10428 10422 10419 10416 10413 10410 10407 10404 10401 10398 10396 10395 10397 10401 10405 10409 10413 10415 10417 10421 10424 10428 10432 10437 10445 10453 10463
10595 10581 10571 10565 10551 10537 10526 10518 10505 10487 10468 10459 10446 10436 10430 10424 10421 10419 10415 10412 10409 10406 10404 10401 10400 10397 10395 10393 10393 10395 10397 10401 10405 10408 10410 10413 10417 10419 10422 10427 10431 10438 10447 10456
10592 10579 10567 10556 10543 10529 10506 10499 10484 10467 10450 10445 10433 10427 10422 10419 10416 10414 10412 10409 10407 10404 10401 10399 10396 10394 10391 10391 10391 10391 10394 10398 10402 10404 10407 10411 10414 10417 10419 10422 10428 10435 10442 10452
10578 10564 10552 10537 10526 10513 10498 10483 10465 10452 10436 10432 10426 10420 10418 10416 10414 10412 10410 10408 10405 10403 10400 10398 10396 10394 10392 10390 10390 10391 10393 10398 10399 10402 10405 10408 10411 10414 10417 10420 10425 10433 10439 10446
10558 10550 10538 10528 10510 10498 10485 10473 10452 10439 10431 10425 10422 10419 10417 10415 10413 10411 10408 10406 10404 10401 10398 10396 10396 10394 10393 10392 10391 10393 10394 10395 10397 10399 10401 10404 10407 10411 10414 10418 10423 10430 10436 10441
10545 10534 10519 10509 10496 10480 10472 10459 10443 10433 10427 10422 10420 10418 10417 10415 10413 10410 10407 10403 10400 10398 10393 10391 10390 10390 10389 10388 10388 10388 10389 10390 10392 10393 10396 10400 10403 10406 10410 10414 10419 10424 10430 10435
10535 10524 10511 10500 10486 10473 10458 10442 10436 10428 10423 10420 10419 10417 10415 10412 10410 10407 10403 10400 10397 10392 10388 10384 10382 10380 10379 10378 10379 10380 10381 10382 10385 10387 10390 10392 10396 10400 10404 10409 10414 10418 10425 10431
10523 10513 10499 10486 10474 10461 10450 10438 10430 10425 10422 10420 10418 10416 10414 10411 10407 10403 10399 10394 10390 10385 10380 10376 10372 10371 10369 10369 10369 10369 10371 10373 10375 10378 10382 10385 10389 10393 10399 10404 10408 10414 10419 10424
10513 10504 10490 10477 10464 10452 10443 10431 10426 10424 10422 10420 10418 10415 10412 10409 10405 10400 10394 10388 10382 10375 10370 10364 10359 10357 10355 10354 10356 10357 10359 10362 10366 10369 10373 10377 10382 10387 10393 10397 10402 10407 10413 10422
10503 10493 10482 10469 10458 10442 10434 10427 10424 10422 10420 10419 10416 10414 10411 10407 10401 10395 10387 10379 10371 10362 10354 10348 10343 10340 10338 10336 10339 10343 10347 10352 10356 10360 10364 10369 10375 10381 10387 10392 10396 10402 10414 10422
10493 10481 10471 10459 10447 10437 10428 10423 10421 10420 10419 10417 10414 10411 10407 10403 10397 10390 10381 10372 10361 10351 10342 10335 10331 10327 10324 10324 10325 10331 10336 10342 10346 10351 10356 10363 10370 10376 10382 10386 10391 10400 10413 10422